Tracking 18840 objects as of 18-November-2017
HD Live streaming from Space Station
objects crossing your sky now

SL-16 DEB

Track SL-16 DEB now!
10-day predictions


NORAD ID: 23090
Int'l Code: 1994-023D
Perigee: 848.1 km
Apogee: 1,129.7 km
Inclination: 71.0 °
Period: 104.7 minutes
Semi major axis: 7359 km
RCS: 0.0868 m2 (small)
Launch date: April 23, 1994
Source: Commonwealth of Independent States (former USSR) (CIS)
Launch site: TYURATAM MISSILE AND SPACE COMPLEX (TTMTR)

Note: This is SATELLITE DEBRIS
aabbcc
Your satellite tracking list
Your tracking list is empty




NASA's NSSDC Master Catalog

Two Line Element Set (TLE):
1 23090U 94023D   17321.42608953 +.00000033 +00000-0 +69340-4 0  9995
2 23090 071.0339 067.7648 0191333 038.0611 323.3830 13.74973904182444
Source of the keplerian elements: AFSPC